Location: Auttagershofen
(48.1940°N, 10.0237°E)
Time: 23:41:08
(UTC+00:00)

Lacrosse 5 rocket - Pass Details

Date: 17 April 2026
Orbit: 390 x 471 km, 57.0° (Epoch: 19 May)

Event Time Altitude Azimuth Distance (km) Brightness Sun altitude
Rises 22:11:29 0° 307° (NW) 2,289 5.3 -29.2°
Reaches altitude 10° 22:13:46 10° 321° (NW) 1,432 4.3 -29.3°
Enters shadow 22:14:19 13° 328° (NNW) 1,254 4.0 -29.3°
